Location: Newark
(51.8833°N, 3.4333°W)
Time: 08:44:59
(UTC+00:00)

ISS - Visible Passes

Search period start: 01 October 2020 00:00
Search period end: 11 October 2020 00:00
Orbit: 419 x 421 km, 51.6° (Epoch: 01 October)

Date Brightness Start Highest point End Pass type
(mag) Time Alt. Az. Time Alt. Az. Time Alt. Az.
01 Oct -3.4 19:03:18 10° W 19:06:38 56° SSW 19:08:40 21° SE visible
01 Oct -1.0 20:40:40 10° W 20:41:39 14° WSW 20:41:39 14° WSW visible
02 Oct -2.0 19:53:04 10° W 19:55:51 24° SSW 19:56:14 23° SSW visible
03 Oct -2.4 19:05:37 10° W 19:08:40 32° SSW 19:10:53 16° SSE visible
04 Oct -2.8 18:18:12 10° W 18:21:26 43° SSW 18:24:40 10° SE visible
04 Oct -1.0 19:56:20 10° WSW 19:57:37 12° SW 19:58:35 11° SSW visible
05 Oct -1.2 19:08:14 10° W 19:10:30 17° SW 19:12:45 10° S visible
06 Oct -1.6 18:20:34 10° W 18:23:20 23° SSW 18:26:05 10° SSE visible
08 Oct -0.7 18:23:48 10° WSW 18:25:01 12° SW 18:26:14 10° SSW visible
